Time,TemperatureF,DewpointF,PressureIn,WindDirection,WindDirectionDegrees,WindSpeedMPH,WindSpeedGustMPH,Humidity,HourlyPrecipIn,Conditions,Clouds,dailyrainin,SoftwareType,DateUTC
2013-05-13 00:01:00,52.1,50.4,30.07,North,0,3.0,6.0,94,0.00,,,0.00,LWC V1.00 B64,2013-05-13 07:01:00,
2013-05-13 00:06:00,52.1,50.4,30.07,North,355,3.0,7.0,94,0.00,,,0.00,LWC V1.00 B64,2013-05-13 07:06:00,
2013-05-13 00:11:00,52.2,50.5,30.07,NNW,343,2.0,9.0,94,0.00,,,0.00,LWC V1.00 B64,2013-05-13 07:11:00,
2013-05-13 00:16:00,52.4,50.7,30.07,North,9,5.0,11.0,94,0.00,,,0.00,LWC V1.00 B64,2013-05-13 07:16:00,
2013-05-13 00:21:00,52.6,51.2,30.08,NW,313,9.0,11.0,95,0.00,,,0.00,LWC V1.00 B64,2013-05-13 07:21:00,
2013-05-13 00:26:00,52.5,50.8,30.08,NNW,344,4.0,10.0,94,0.00,,,0.00,LWC V1.00 B64,2013-05-13 07:26:00,
2013-05-13 00:31:00,52.2,50.5,30.08,NNW,348,8.0,8.0,94,0.00,,,0.00,LWC V1.00 B64,2013-05-13 07:31:00,
2013-05-13 00:36:00,52.0,50.3,30.08,NNW,330,7.0,13.0,94,0.00,,,0.00,LWC V1.00 B64,2013-05-13 07:36:00,
2013-05-13 00:41:00,51.7,50.0,30.08,NNW,347,4.0,10.0,94,0.00,,,0.00,LWC V1.00 B64,2013-05-13 07:41:00,
2013-05-13 00:46:00,51.8,50.4,30.08,North,5,3.0,10.0,95,0.00,,,0.00,LWC V1.00 B64,2013-05-13 07:46:00,
2013-05-13 00:51:00,51.8,50.4,30.07,NNW,339,5.0,11.0,95,0.00,,,0.00,LWC V1.00 B64,2013-05-13 07:51:00,
2013-05-13 00:56:00,51.7,50.0,30.07,NNW,338,3.0,6.0,94,0.00,,,0.00,LWC V1.00 B64,2013-05-13 07:56:00,
2013-05-13 01:01:00,51.7,50.0,30.07,North,355,5.0,11.0,94,0.00,,,0.00,LWC V1.00 B64,2013-05-13 08:01:00,
2013-05-13 01:06:00,51.4,50.0,30.08,NNW,340,4.0,9.0,95,0.00,,,0.00,LWC V1.00 B64,2013-05-13 08:06:00,
2013-05-13 01:11:00,51.4,50.0,30.07,NNW,331,3.0,9.0,95,0.00,,,0.00,LWC V1.00 B64,2013-05-13 08:11:00,
2013-05-13 01:16:00,51.4,50.0,30.07,North,355,2.0,3.0,95,0.00,,,0.00,LWC V1.00 B64,2013-05-13 08:16:00,
2013-05-13 01:21:00,51.5,50.1,30.07,NNE,15,0.0,3.0,95,0.00,,,0.00,LWC V1.00 B64,2013-05-13 08:21:00,
2013-05-13 01:26:00,51.5,50.1,30.07,NNW,336,7.0,11.0,95,0.00,,,0.00,LWC V1.00 B64,2013-05-13 08:26:00,
2013-05-13 01:31:00,51.4,50.0,30.07,North,350,3.0,9.0,95,0.00,,,0.00,LWC V1.00 B64,2013-05-13 08:31:00,
2013-05-13 01:36:00,51.5,50.1,30.07,NW,323,6.0,10.0,95,0.00,,,0.00,LWC V1.00 B64,2013-05-13 08:36:00,
2013-05-13 01:41:00,51.5,50.1,30.07,NNW,346,4.0,6.0,95,0.00,,,0.00,LWC V1.00 B64,2013-05-13 08:41:00,
2013-05-13 01:46:00,51.6,50.2,30.06,North,0,5.0,10.0,95,0.00,,,0.00,LWC V1.00 B64,2013-05-13 08:46:00,
2013-05-13 01:51:00,51.6,50.2,30.06,NNW,331,6.0,6.0,95,0.00,,,0.00,LWC V1.00 B64,2013-05-13 08:51:00,
2013-05-13 01:56:00,51.5,50.1,30.06,North,355,9.0,10.0,95,0.00,,,0.00,LWC V1.00 B64,2013-05-13 08:56:00,
2013-05-13 02:01:00,51.4,50.0,30.06,North,355,6.0,10.0,95,0.00,,,0.00,LWC V1.00 B64,2013-05-13 09:01:00,
2013-05-13 02:06:00,51.4,50.0,30.06,NNW,348,0.0,2.0,95,0.00,,,0.00,LWC V1.00 B64,2013-05-13 09:06:00,
2013-05-13 02:11:00,51.4,50.0,30.06,NNW,346,0.0,5.0,95,0.00,,,0.00,LWC V1.00 B64,2013-05-13 09:11:00,
2013-05-13 02:16:00,51.4,50.0,30.06,NW,316,2.0,2.0,95,0.00,,,0.00,LWC V1.00 B64,2013-05-13 09:16:00,
2013-05-13 02:21:00,51.5,50.1,30.06,NW,316,0.0,0.0,95,0.00,,,0.00,LWC V1.00 B64,2013-05-13 09:21:00,
2013-05-13 02:26:00,51.7,50.3,30.06,NW,316,0.0,3.0,95,0.00,,,0.00,LWC V1.00 B64,2013-05-13 09:26:00,
2013-05-13 02:31:00,51.9,50.5,30.05,NW,316,0.0,0.0,95,0.00,,,0.00,LWC V1.00 B64,2013-05-13 09:31:00,
2013-05-13 02:36:00,52.1,50.7,30.06,NW,317,0.0,0.0,95,0.00,,,0.00,LWC V1.00 B64,2013-05-13 09:36:00,
2013-05-13 02:41:00,52.1,50.7,30.06,NW,317,1.0,1.0,95,0.00,,,0.00,LWC V1.00 B64,2013-05-13 09:41:00,
2013-05-13 02:46:00,51.8,50.4,30.06,NW,316,0.0,4.0,95,0.00,,,0.00,LWC V1.00 B64,2013-05-13 09:46:00,
2013-05-13 02:51:00,51.5,49.8,30.06,NW,313,1.0,2.0,94,0.00,,,0.00,LWC V1.00 B64,2013-05-13 09:51:00,
2013-05-13 02:56:00,51.4,50.0,30.06,NW,310,0.0,1.0,95,0.00,,,0.00,LWC V1.00 B64,2013-05-13 09:56:00,
2013-05-13 03:01:00,51.3,49.9,30.06,NW,310,0.0,1.0,95,0.00,,,0.00,LWC V1.00 B64,2013-05-13 10:01:00,
2013-05-13 03:06:00,51.3,49.9,30.06,NW,310,0.0,0.0,95,0.00,,,0.00,LWC V1.00 B64,2013-05-13 10:06:00,
2013-05-13 03:11:00,51.1,49.4,30.05,NW,310,1.0,2.0,94,0.00,,,0.00,LWC V1.00 B64,2013-05-13 10:11:00,
2013-05-13 03:16:00,50.9,49.2,30.05,NW,310,0.0,1.0,94,0.00,,,0.00,LWC V1.00 B64,2013-05-13 10:16:00,
2013-05-13 03:21:00,50.7,49.0,30.05,NW,310,0.0,0.0,94,0.00,,,0.00,LWC V1.00 B64,2013-05-13 10:21:00,
2013-05-13 03:26:00,50.6,49.2,30.05,NW,310,0.0,0.0,95,0.00,,,0.00,LWC V1.00 B64,2013-05-13 10:26:00,
2013-05-13 03:31:00,50.5,49.1,30.05,NW,310,0.0,0.0,95,0.00,,,0.00,LWC V1.00 B64,2013-05-13 10:31:00,
2013-05-13 03:36:00,50.4,48.7,30.05,NW,310,0.0,0.0,94,0.00,,,0.00,LWC V1.00 B64,2013-05-13 10:36:00,
2013-05-13 03:41:00,50.4,48.7,30.05,NW,310,0.0,1.0,94,0.00,,,0.00,LWC V1.00 B64,2013-05-13 10:41:00,
2013-05-13 03:46:00,50.3,48.6,30.05,NW,310,0.0,2.0,94,0.00,,,0.00,LWC V1.00 B64,2013-05-13 10:46:00,
2013-05-13 03:51:00,50.3,48.9,30.05,NW,310,0.0,0.0,95,0.00,,,0.00,LWC V1.00 B64,2013-05-13 10:51:00,
2013-05-13 03:56:00,50.2,48.8,30.05,NW,310,0.0,0.0,95,0.00,,,0.00,LWC V1.00 B64,2013-05-13 10:56:00,
2013-05-13 04:01:00,50.2,48.8,30.05,NW,310,0.0,0.0,95,0.00,,,0.00,LWC V1.00 B64,2013-05-13 11:01:00,
2013-05-13 04:06:00,50.2,48.8,30.05,NW,310,0.0,0.0,95,0.00,,,0.00,LWC V1.00 B64,2013-05-13 11:06:00,
2013-05-13 04:11:00,50.2,48.8,30.05,NW,310,0.0,0.0,95,0.00,,,0.00,LWC V1.00 B64,2013-05-13 11:11:00,
2013-05-13 04:16:00,50.2,48.8,30.05,NW,310,0.0,0.0,95,0.00,,,0.00,LWC V1.00 B64,2013-05-13 11:16:00,
2013-05-13 04:21:00,50.2,48.8,30.05,NW,310,0.0,0.0,95,0.00,,,0.00,LWC V1.00 B64,2013-05-13 11:21:00,
2013-05-13 04:26:00,50.2,48.8,30.05,NW,310,0.0,0.0,95,0.00,,,0.00,LWC V1.00 B64,2013-05-13 11:26:00,
2013-05-13 04:31:00,50.3,48.9,30.06,NW,310,2.0,2.0,95,0.00,,,0.00,LWC V1.00 B64,2013-05-13 11:31:00,
2013-05-13 04:36:00,50.9,49.5,30.06,NW,310,0.0,0.0,95,0.00,,,0.00,LWC V1.00 B64,2013-05-13 11:36:00,
2013-05-13 04:41:00,51.2,49.8,30.06,NW,310,0.0,2.0,95,0.00,,,0.00,LWC V1.00 B64,2013-05-13 11:41:00,
2013-05-13 04:46:00,51.9,50.5,30.06,NNW,344,0.0,6.0,95,0.00,,,0.00,LWC V1.00 B64,2013-05-13 11:46:00,
2013-05-13 04:51:00,52.3,50.9,30.06,NNW,338,0.0,5.0,95,0.00,,,0.00,LWC V1.00 B64,2013-05-13 11:51:00,
2013-05-13 04:56:00,52.6,51.2,30.06,NNW,345,2.0,2.0,95,0.00,,,0.00,LWC V1.00 B64,2013-05-13 11:56:00,
2013-05-13 05:01:00,52.7,51.3,30.06,NNW,346,0.0,0.0,95,0.00,,,0.00,LWC V1.00 B64,2013-05-13 12:01:00,
2013-05-13 05:06:00,52.7,51.3,30.06,NNW,345,0.0,3.0,95,0.00,,,0.00,LWC V1.00 B64,2013-05-13 12:06:00,
2013-05-13 05:11:00,52.6,51.2,30.06,NNW,346,0.0,3.0,95,0.00,,,0.00,LWC V1.00 B64,2013-05-13 12:11:00,
2013-05-13 05:16:00,52.3,50.9,30.06,NNW,346,0.0,3.0,95,0.00,,,0.00,LWC V1.00 B64,2013-05-13 12:16:00,
2013-05-13 05:21:00,51.8,50.1,30.06,NNW,346,0.0,1.0,94,0.00,,,0.00,LWC V1.00 B64,2013-05-13 12:21:00,
2013-05-13 05:26:00,51.5,49.8,30.06,NNW,346,0.0,0.0,94,0.00,,,0.00,LWC V1.00 B64,2013-05-13 12:26:00,
2013-05-13 05:31:00,51.3,49.6,30.06,NNW,346,0.0,0.0,94,0.00,,,0.00,LWC V1.00 B64,2013-05-13 12:31:00,
2013-05-13 05:36:00,51.2,49.5,30.06,NNW,346,0.0,0.0,94,0.00,,,0.00,LWC V1.00 B64,2013-05-13 12:36:00,
2013-05-13 05:41:00,51.0,49.3,30.07,NNW,346,0.0,0.0,94,0.00,,,0.00,LWC V1.00 B64,2013-05-13 12:41:00,
2013-05-13 05:46:00,50.9,49.2,30.07,NNW,346,0.0,0.0,94,0.00,,,0.00,LWC V1.00 B64,2013-05-13 12:46:00,
2013-05-13 05:51:00,50.8,49.4,30.07,NNW,345,0.0,0.0,95,0.00,,,0.00,LWC V1.00 B64,2013-05-13 12:51:00,
2013-05-13 05:56:00,50.8,49.4,30.07,NNW,346,0.0,0.0,95,0.00,,,0.00,LWC V1.00 B64,2013-05-13 12:56:00,
2013-05-13 06:01:00,50.9,49.5,30.07,NNW,346,0.0,0.0,95,0.00,,,0.00,LWC V1.00 B64,2013-05-13 13:01:00,
2013-05-13 06:06:00,51.0,49.6,30.07,NNW,345,0.0,0.0,95,0.00,,,0.00,LWC V1.00 B64,2013-05-13 13:06:00,
2013-05-13 06:11:00,51.0,49.6,30.07,NNW,345,0.0,0.0,95,0.00,,,0.00,LWC V1.00 B64,2013-05-13 13:11:00,
2013-05-13 06:16:00,51.1,49.7,30.07,NNW,346,0.0,0.0,95,0.00,,,0.00,LWC V1.00 B64,2013-05-13 13:16:00,
2013-05-13 06:21:00,51.2,49.8,30.08,NNW,345,0.0,0.0,95,0.00,,,0.00,LWC V1.00 B64,2013-05-13 13:21:00,
2013-05-13 06:26:00,51.2,49.8,30.07,NNW,346,0.0,0.0,95,0.00,,,0.00,LWC V1.00 B64,2013-05-13 13:26:00,
2013-05-13 06:31:00,51.3,49.9,30.07,NNW,345,0.0,0.0,95,0.00,,,0.00,LWC V1.00 B64,2013-05-13 13:31:00,
2013-05-13 06:36:00,51.3,49.9,30.08,NNW,346,0.0,0.0,95,0.00,,,0.00,LWC V1.00 B64,2013-05-13 13:36:00,
2013-05-13 06:41:00,51.3,49.9,30.08,NNW,346,0.0,0.0,95,0.00,,,0.00,LWC V1.00 B64,2013-05-13 13:41:00,
2013-05-13 06:46:00,51.3,49.9,30.08,NNW,345,0.0,0.0,95,0.00,,,0.00,LWC V1.00 B64,2013-05-13 13:46:00,
2013-05-13 06:51:00,51.4,50.0,30.08,NNW,346,0.0,0.0,95,0.00,,,0.00,LWC V1.00 B64,2013-05-13 13:51:00,
2013-05-13 06:56:00,51.5,50.1,30.08,NNW,345,0.0,1.0,95,0.00,,,0.00,LWC V1.00 B64,2013-05-13 13:56:00,
2013-05-13 07:01:00,51.7,50.3,30.09,NNW,345,0.0,0.0,95,0.00,,,0.00,LWC V1.00 B64,2013-05-13 14:01:00,
2013-05-13 07:06:00,51.8,50.4,30.08,NNW,346,0.0,0.0,95,0.00,,,0.00,LWC V1.00 B64,2013-05-13 14:06:00,
2013-05-13 07:11:00,51.9,50.5,30.09,NNW,346,0.0,0.0,95,0.00,,,0.00,LWC V1.00 B64,2013-05-13 14:11:00,
2013-05-13 07:16:00,52.1,50.7,30.09,NNW,346,0.0,0.0,95,0.00,,,0.00,LWC V1.00 B64,2013-05-13 14:16:00,
2013-05-13 07:21:00,52.2,50.8,30.09,NNW,345,0.0,0.0,95,0.00,,,0.00,LWC V1.00 B64,2013-05-13 14:21:00,
2013-05-13 07:26:00,52.5,51.1,30.09,NNW,345,0.0,2.0,95,0.00,,,0.00,LWC V1.00 B64,2013-05-13 14:26:00,
2013-05-13 07:31:00,52.8,51.4,30.09,NNW,348,0.0,4.0,95,0.00,,,0.00,LWC V1.00 B64,2013-05-13 14:31:00,
2013-05-13 07:36:00,52.8,51.4,30.10,NNW,348,3.0,3.0,95,0.00,,,0.00,LWC V1.00 B64,2013-05-13 14:36:00,
2013-05-13 07:41:00,52.8,51.4,30.10,North,355,1.0,4.0,95,0.00,,,0.00,LWC V1.00 B64,2013-05-13 14:41:00,
2013-05-13 07:46:00,52.8,51.4,30.09,NNW,347,3.0,3.0,95,0.00,,,0.00,LWC V1.00 B64,2013-05-13 14:46:00,
2013-05-13 07:51:00,52.8,51.4,30.09,NNW,337,7.0,9.0,95,0.00,,,0.00,LWC V1.00 B64,2013-05-13 14:51:00,
2013-05-13 07:56:00,52.9,51.5,30.10,NNW,345,4.0,5.0,95,0.00,,,0.00,LWC V1.00 B64,2013-05-13 14:56:00,
2013-05-13 08:01:00,53.0,51.6,30.10,NNW,330,10.0,12.0,95,0.00,,,0.00,LWC V1.00 B64,2013-05-13 15:01:00,
2013-05-13 08:06:00,53.0,51.6,30.10,NNW,342,4.0,9.0,95,0.00,,,0.00,LWC V1.00 B64,2013-05-13 15:06:00,
2013-05-13 08:11:00,53.2,51.8,30.10,NNW,334,2.0,7.0,95,0.00,,,0.00,LWC V1.00 B64,2013-05-13 15:11:00,
2013-05-13 08:16:00,53.0,51.6,30.10,NNW,335,9.0,14.0,95,0.00,,,0.00,LWC V1.00 B64,2013-05-13 15:16:00,
2013-05-13 08:21:00,53.0,51.6,30.10,NNW,336,9.0,11.0,95,0.00,,,0.00,LWC V1.00 B64,2013-05-13 15:21:00,
2013-05-13 08:26:00,53.1,51.7,30.10,North,0,6.0,10.0,95,0.00,,,0.00,LWC V1.00 B64,2013-05-13 15:26:00,
2013-05-13 08:31:00,53.3,51.9,30.10,North,0,5.0,10.0,95,0.00,,,0.00,LWC V1.00 B64,2013-05-13 15:31:00,
2013-05-13 08:36:00,53.4,52.0,30.10,NW,317,11.0,12.0,95,0.00,,,0.00,LWC V1.00 B64,2013-05-13 15:36:00,
2013-05-13 08:41:00,53.3,51.9,30.10,North,350,12.0,12.0,95,0.00,,,0.00,LWC V1.00 B64,2013-05-13 15:41:00,
2013-05-13 08:46:00,53.3,51.9,30.10,NNW,333,6.0,11.0,95,0.00,,,0.00,LWC V1.00 B64,2013-05-13 15:46:00,
2013-05-13 08:51:00,53.3,51.9,30.10,North,5,4.0,10.0,95,0.00,,,0.00,LWC V1.00 B64,2013-05-13 15:51:00,
2013-05-13 08:56:00,53.5,52.1,30.10,NNW,333,5.0,10.0,95,0.00,,,0.00,LWC V1.00 B64,2013-05-13 15:56:00,
2013-05-13 09:01:00,53.6,51.9,30.11,North,355,4.0,11.0,94,0.00,,,0.00,LWC V1.00 B64,2013-05-13 16:01:00,
2013-05-13 09:06:00,53.6,51.9,30.11,North,0,11.0,11.0,94,0.00,,,0.00,LWC V1.00 B64,2013-05-13 16:06:00,
2013-05-13 09:11:00,53.7,52.0,30.11,North,0,5.0,7.0,94,0.00,,,0.00,LWC V1.00 B64,2013-05-13 16:11:00,
2013-05-13 09:16:00,54.0,52.3,30.11,NNW,341,4.0,10.0,94,0.00,,,0.00,LWC V1.00 B64,2013-05-13 16:16:00,
2013-05-13 09:21:00,54.2,52.5,30.11,NNW,348,3.0,7.0,94,0.00,,,0.00,LWC V1.00 B64,2013-05-13 16:21:00,
2013-05-13 09:26:00,54.4,52.7,30.11,NNW,341,3.0,7.0,94,0.00,,,0.00,LWC V1.00 B64,2013-05-13 16:26:00,
2013-05-13 09:31:00,54.5,52.8,30.11,North,355,5.0,10.0,94,0.00,,,0.00,LWC V1.00 B64,2013-05-13 16:31:00,
2013-05-13 09:36:00,54.8,53.1,30.10,NW,314,3.0,9.0,94,0.00,,,0.00,LWC V1.00 B64,2013-05-13 16:36:00,
2013-05-13 09:41:00,55.2,53.5,30.10,NNE,12,5.0,8.0,94,0.00,,,0.00,LWC V1.00 B64,2013-05-13 16:41:00,
2013-05-13 09:46:00,55.2,53.2,30.11,NNW,329,3.0,7.0,93,0.00,,,0.00,LWC V1.00 B64,2013-05-13 16:46:00,
2013-05-13 09:51:00,55.3,53.3,30.11,NNW,345,4.0,9.0,93,0.00,,,0.00,LWC V1.00 B64,2013-05-13 16:51:00,
2013-05-13 09:56:00,55.8,53.8,30.11,NW,323,7.0,9.0,93,0.00,,,0.00,LWC V1.00 B64,2013-05-13 16:56:00,
2013-05-13 10:01:00,55.8,53.5,30.11,North,349,6.0,11.0,92,0.00,,,0.00,LWC V1.00 B64,2013-05-13 17:01:00,
2013-05-13 10:06:00,56.2,53.9,30.11,North,350,4.0,10.0,92,0.00,,,0.00,LWC V1.00 B64,2013-05-13 17:06:00,
2013-05-13 10:11:00,56.3,54.0,30.11,North,355,4.0,7.0,92,0.00,,,0.00,LWC V1.00 B64,2013-05-13 17:11:00,
2013-05-13 10:16:00,56.6,54.3,30.11,North,355,5.0,9.0,92,0.00,,,0.00,LWC V1.00 B64,2013-05-13 17:16:00,
2013-05-13 10:21:00,56.8,54.2,30.11,North,355,6.0,13.0,91,0.00,,,0.00,LWC V1.00 B64,2013-05-13 17:21:00,
2013-05-13 10:26:00,56.9,54.3,30.11,NNW,338,12.0,12.0,91,0.00,,,0.00,LWC V1.00 B64,2013-05-13 17:26:00,
2013-05-13 10:31:00,57.4,54.8,30.11,NNW,342,4.0,10.0,91,0.00,,,0.00,LWC V1.00 B64,2013-05-13 17:31:00,
2013-05-13 10:36:00,57.7,54.8,30.11,North,5,6.0,7.0,90,0.00,,,0.00,LWC V1.00 B64,2013-05-13 17:36:00,
2013-05-13 10:41:00,57.6,54.4,30.11,North,355,3.0,11.0,89,0.00,,,0.00,LWC V1.00 B64,2013-05-13 17:41:00,
2013-05-13 10:46:00,58.0,54.8,30.11,NNW,346,6.0,8.0,89,0.00,,,0.00,LWC V1.00 B64,2013-05-13 17:46:00,
2013-05-13 10:51:00,58.2,55.0,30.11,North,355,9.0,11.0,89,0.00,,,0.00,LWC V1.00 B64,2013-05-13 17:51:00,
2013-05-13 10:56:00,58.5,55.3,30.11,NW,326,3.0,12.0,89,0.00,,,0.00,LWC V1.00 B64,2013-05-13 17:56:00,
2013-05-13 11:01:00,58.7,55.5,30.11,North,0,11.0,11.0,89,0.00,,,0.00,LWC V1.00 B64,2013-05-13 18:01:00,
2013-05-13 11:06:00,58.9,55.3,30.11,NNE,13,7.0,9.0,88,0.00,,,0.00,LWC V1.00 B64,2013-05-13 18:06:00,
2013-05-13 11:11:00,58.8,55.6,30.11,NNW,340,6.0,16.0,89,0.00,,,0.00,LWC V1.00 B64,2013-05-13 18:11:00,
2013-05-13 11:16:00,58.5,55.0,30.12,NNW,327,2.0,12.0,88,0.00,,,0.00,LWC V1.00 B64,2013-05-13 18:16:00,
2013-05-13 11:21:00,58.3,54.8,30.12,NNW,327,8.0,14.0,88,0.00,,,0.00,LWC V1.00 B64,2013-05-13 18:21:00,
2013-05-13 11:26:00,58.3,55.1,30.12,North,0,11.0,13.0,89,0.00,,,0.00,LWC V1.00 B64,2013-05-13 18:26:00,
2013-05-13 11:31:00,58.2,55.0,30.12,NNW,334,4.0,13.0,89,0.00,,,0.00,LWC V1.00 B64,2013-05-13 18:31:00,
2013-05-13 11:36:00,58.3,55.1,30.12,NNE,17,4.0,13.0,89,0.00,,,0.00,LWC V1.00 B64,2013-05-13 18:36:00,
2013-05-13 11:41:00,58.4,55.2,30.12,NNW,333,3.0,12.0,89,0.00,,,0.00,LWC V1.00 B64,2013-05-13 18:41:00,
2013-05-13 11:46:00,58.5,55.3,30.12,NNW,348,1.0,9.0,89,0.00,,,0.00,LWC V1.00 B64,2013-05-13 18:46:00,
2013-05-13 11:51:00,58.7,55.5,30.12,NW,311,5.0,10.0,89,0.00,,,0.00,LWC V1.00 B64,2013-05-13 18:51:00,
2013-05-13 11:56:00,58.4,54.9,30.12,North,0,7.0,11.0,88,0.00,,,0.00,LWC V1.00 B64,2013-05-13 18:56:00,
2013-05-13 12:01:00,58.3,55.1,30.11,North,350,3.0,12.0,89,0.00,,,0.00,LWC V1.00 B64,2013-05-13 19:01:00,
2013-05-13 12:06:00,58.9,55.7,30.11,NNW,333,6.0,12.0,89,0.00,,,0.00,LWC V1.00 B64,2013-05-13 19:06:00,
2013-05-13 12:11:00,59.3,56.1,30.11,NNW,348,5.0,12.0,89,0.00,,,0.00,LWC V1.00 B64,2013-05-13 19:11:00,
2013-05-13 12:16:00,59.2,55.6,30.11,North,0,6.0,12.0,88,0.00,,,0.00,LWC V1.00 B64,2013-05-13 19:16:00,
2013-05-13 12:21:00,59.1,55.9,30.11,North,355,6.0,12.0,89,0.00,,,0.00,LWC V1.00 B64,2013-05-13 19:21:00,
2013-05-13 12:26:00,58.9,55.3,30.11,NNW,346,7.0,11.0,88,0.00,,,0.00,LWC V1.00 B64,2013-05-13 19:26:00,
2013-05-13 12:31:00,59.1,55.5,30.11,NNW,337,4.0,12.0,88,0.00,,,0.00,LWC V1.00 B64,2013-05-13 19:31:00,
2013-05-13 12:36:00,58.6,55.1,30.11,NNW,340,13.0,13.0,88,0.00,,,0.00,LWC V1.00 B64,2013-05-13 19:36:00,
2013-05-13 12:41:00,58.4,54.9,30.11,NNE,20,6.0,11.0,88,0.00,,,0.00,LWC V1.00 B64,2013-05-13 19:41:00,
2013-05-13 12:46:00,58.5,55.3,30.11,NNE,12,6.0,10.0,89,0.00,,,0.00,LWC V1.00 B64,2013-05-13 19:46:00,
2013-05-13 12:51:00,59.0,55.4,30.10,NNW,346,3.0,10.0,88,0.00,,,0.00,LWC V1.00 B64,2013-05-13 19:51:00,
2013-05-13 12:56:00,59.3,55.7,30.10,NNW,333,11.0,12.0,88,0.00,,,0.00,LWC V1.00 B64,2013-05-13 19:56:00,
2013-05-13 13:01:00,59.2,55.6,30.10,NNW,347,4.0,11.0,88,0.00,,,0.00,LWC V1.00 B64,2013-05-13 20:01:00,
2013-05-13 13:06:00,58.9,55.3,30.10,North,350,2.0,15.0,88,0.00,,,0.00,LWC V1.00 B64,2013-05-13 20:06:00,
2013-05-13 13:11:00,59.3,55.7,30.10,NNE,13,6.0,11.0,88,0.00,,,0.00,LWC V1.00 B64,2013-05-13 20:11:00,
2013-05-13 13:16:00,59.8,56.5,30.10,North,5,4.0,6.0,89,0.00,,,0.00,LWC V1.00 B64,2013-05-13 20:16:00,
2013-05-13 13:21:00,59.8,55.9,30.10,NNW,336,9.0,12.0,87,0.00,,,0.00,LWC V1.00 B64,2013-05-13 20:21:00,
2013-05-13 13:26:00,59.7,55.8,30.10,North,5,4.0,9.0,87,0.00,,,0.00,LWC V1.00 B64,2013-05-13 20:26:00,
2013-05-13 13:31:00,59.9,56.0,30.10,North,10,3.0,13.0,87,0.00,,,0.00,LWC V1.00 B64,2013-05-13 20:31:00,
2013-05-13 13:36:00,59.9,56.0,30.10,NNW,341,2.0,16.0,87,0.00,,,0.00,LWC V1.00 B64,2013-05-13 20:36:00,
2013-05-13 13:41:00,60.1,56.2,30.09,North,5,5.0,10.0,87,0.00,,,0.00,LWC V1.00 B64,2013-05-13 20:41:00,
2013-05-13 13:46:00,60.2,56.0,30.09,NNW,348,6.0,15.0,86,0.00,,,0.00,LWC V1.00 B64,2013-05-13 20:46:00,
2013-05-13 13:51:00,60.5,56.3,30.09,NNW,331,7.0,14.0,86,0.00,,,0.00,LWC V1.00 B64,2013-05-13 20:51:00,
2013-05-13 13:56:00,60.7,56.2,30.09,NNW,345,12.0,16.0,85,0.00,,,0.00,LWC V1.00 B64,2013-05-13 20:56:00,
2013-05-13 14:01:00,60.5,56.0,30.09,NW,315,4.0,9.0,85,0.00,,,0.00,LWC V1.00 B64,2013-05-13 21:01:00,
2013-05-13 14:06:00,60.6,56.1,30.09,NNW,331,4.0,13.0,85,0.00,,,0.00,LWC V1.00 B64,2013-05-13 21:06:00,
2013-05-13 14:11:00,60.9,56.4,30.08,NNW,327,7.0,11.0,85,0.00,,,0.00,LWC V1.00 B64,2013-05-13 21:11:00,
2013-05-13 14:16:00,61.0,56.5,30.08,NNW,329,4.0,10.0,85,0.00,,,0.00,LWC V1.00 B64,2013-05-13 21:16:00,
2013-05-13 14:21:00,61.3,56.1,30.08,NNW,346,6.0,13.0,83,0.00,,,0.00,LWC V1.00 B64,2013-05-13 21:21:00,
2013-05-13 14:26:00,61.5,56.3,30.08,NNE,18,7.0,14.0,83,0.00,,,0.00,LWC V1.00 B64,2013-05-13 21:26:00,
2013-05-13 14:31:00,61.7,56.5,30.08,North,5,5.0,11.0,83,0.00,,,0.00,LWC V1.00 B64,2013-05-13 21:31:00,
2013-05-13 14:36:00,62.0,57.1,30.08,North,9,9.0,10.0,84,0.00,,,0.00,LWC V1.00 B64,2013-05-13 21:36:00,
2013-05-13 14:41:00,62.0,56.4,30.08,North,0,7.0,15.0,82,0.00,,,0.00,LWC V1.00 B64,2013-05-13 21:41:00,
2013-05-13 14:46:00,61.9,56.7,30.08,North,0,9.0,15.0,83,0.00,,,0.00,LWC V1.00 B64,2013-05-13 21:46:00,
2013-05-13 14:51:00,62.2,57.0,30.08,North,10,7.0,14.0,83,0.00,,,0.00,LWC V1.00 B64,2013-05-13 21:51:00,
2013-05-13 14:56:00,62.3,56.7,30.08,NNW,333,7.0,11.0,82,0.00,,,0.00,LWC V1.00 B64,2013-05-13 21:56:00,
2013-05-13 15:01:00,62.4,56.8,30.08,NNE,12,6.0,11.0,82,0.00,,,0.00,LWC V1.00 B64,2013-05-13 22:01:00,
2013-05-13 15:06:00,62.0,56.1,30.08,North,355,11.0,14.0,81,0.00,,,0.00,LWC V1.00 B64,2013-05-13 22:06:00,
2013-05-13 15:11:00,62.1,56.9,30.08,NNW,346,6.0,12.0,83,0.00,,,0.00,LWC V1.00 B64,2013-05-13 22:11:00,
2013-05-13 15:16:00,62.2,56.6,30.08,North,5,7.0,7.0,82,0.00,,,0.00,LWC V1.00 B64,2013-05-13 22:16:00,
2013-05-13 15:22:00,62.3,56.4,30.07,NNW,340,14.0,19.0,81,0.00,,,0.00,LWC V1.00 B64,2013-05-13 22:22:00,
2013-05-13 15:27:00,62.1,56.5,30.07,North,9,5.0,10.0,82,0.00,,,0.00,LWC V1.00 B64,2013-05-13 22:27:00,
2013-05-13 15:32:00,61.2,56.0,30.07,North,5,13.0,17.0,83,0.00,,,0.00,LWC V1.00 B64,2013-05-13 22:32:00,
2013-05-13 15:37:00,61.5,55.9,30.07,North,355,12.0,15.0,82,0.00,,,0.00,LWC V1.00 B64,2013-05-13 22:37:00,
2013-05-13 15:42:00,60.9,55.7,30.07,North,5,6.0,13.0,83,0.00,,,0.00,LWC V1.00 B64,2013-05-13 22:42:00,
2013-05-13 15:47:00,61.1,56.2,30.07,NNW,338,5.0,14.0,84,0.00,,,0.00,LWC V1.00 B64,2013-05-13 22:47:00,
2013-05-13 15:52:00,61.2,55.7,30.06,North,0,10.0,16.0,82,0.00,,,0.00,LWC V1.00 B64,2013-05-13 22:52:00,
2013-05-13 15:57:00,61.1,55.9,30.06,NNE,19,12.0,16.0,83,0.00,,,0.00,LWC V1.00 B64,2013-05-13 22:57:00,
2013-05-13 16:02:00,60.7,55.5,30.06,NNW,333,6.0,16.0,83,0.00,,,0.00,LWC V1.00 B64,2013-05-13 23:02:00,
2013-05-13 16:07:00,60.9,56.0,30.06,NNW,346,5.0,17.0,84,0.00,,,0.00,LWC V1.00 B64,2013-05-13 23:07:00,
2013-05-13 16:12:00,60.8,55.3,30.06,NNW,348,14.0,16.0,82,0.00,,,0.00,LWC V1.00 B64,2013-05-13 23:12:00,
2013-05-13 16:17:00,60.6,55.4,30.06,North,9,11.0,18.0,83,0.00,,,0.00,LWC V1.00 B64,2013-05-13 23:17:00,
2013-05-13 16:22:00,60.9,55.7,30.05,NNW,340,9.0,13.0,83,0.00,,,0.00,LWC V1.00 B64,2013-05-13 23:22:00,
2013-05-13 16:27:00,60.8,55.6,30.05,North,355,14.0,14.0,83,0.00,,,0.00,LWC V1.00 B64,2013-05-13 23:27:00,
2013-05-13 16:32:00,60.7,55.2,30.05,North,9,11.0,16.0,82,0.00,,,0.00,LWC V1.00 B64,2013-05-13 23:32:00,
2013-05-13 16:37:00,60.4,55.2,30.05,North,0,5.0,13.0,83,0.00,,,0.00,LWC V1.00 B64,2013-05-13 23:37:00,
2013-05-13 16:42:00,60.5,55.3,30.04,North,5,6.0,13.0,83,0.00,,,0.00,LWC V1.00 B64,2013-05-13 23:42:00,
2013-05-13 16:47:00,60.4,54.9,30.04,North,0,10.0,17.0,82,0.00,,,0.00,LWC V1.00 B64,2013-05-13 23:47:00,
2013-05-13 16:52:00,60.7,55.2,30.04,NNW,344,4.0,11.0,82,0.00,,,0.00,LWC V1.00 B64,2013-05-13 23:52:00,
2013-05-13 16:57:00,60.9,55.4,30.04,NNW,331,7.0,16.0,82,0.00,,,0.00,LWC V1.00 B64,2013-05-13 23:57:00,
2013-05-13 17:02:00,60.6,54.7,30.04,North,5,10.0,17.0,81,0.00,,,0.00,LWC V1.00 B64,2013-05-14 00:02:00,
2013-05-13 17:07:00,60.4,54.5,30.03,North,5,7.0,15.0,81,0.00,,,0.00,LWC V1.00 B64,2013-05-14 00:07:00,
2013-05-13 17:12:00,60.6,54.4,30.03,North,0,16.0,16.0,80,0.00,,,0.00,LWC V1.00 B64,2013-05-14 00:12:00,
2013-05-13 17:17:00,60.7,54.1,30.03,North,0,8.0,15.0,79,0.00,,,0.00,LWC V1.00 B64,2013-05-14 00:17:00,
2013-05-13 17:22:00,61.2,54.6,30.03,NNE,13,8.0,14.0,79,0.00,,,0.00,LWC V1.00 B64,2013-05-14 00:22:00,
2013-05-13 17:27:00,61.4,54.8,30.03,NW,311,11.0,13.0,79,0.00,,,0.00,LWC V1.00 B64,2013-05-14 00:27:00,
2013-05-13 17:32:00,61.3,54.0,30.03,North,10,7.0,13.0,77,0.00,,,0.00,LWC V1.00 B64,2013-05-14 00:32:00,
2013-05-13 17:37:00,61.1,53.8,30.02,North,5,5.0,16.0,77,0.00,,,0.00,LWC V1.00 B64,2013-05-14 00:37:00,
2013-05-13 17:42:00,61.1,53.8,30.02,NNW,344,5.0,14.0,77,0.00,,,0.00,LWC V1.00 B64,2013-05-14 00:42:00,
2013-05-13 17:47:00,61.0,53.7,30.02,NNE,12,6.0,14.0,77,0.00,,,0.00,LWC V1.00 B64,2013-05-14 00:47:00,
2013-05-13 17:52:00,60.9,53.6,30.02,NNW,334,6.0,16.0,77,0.00,,,0.00,LWC V1.00 B64,2013-05-14 00:52:00,
2013-05-13 17:57:00,60.8,53.5,30.02,NNW,345,3.0,14.0,77,0.00,,,0.00,LWC V1.00 B64,2013-05-14 00:57:00,
2013-05-13 18:02:00,60.9,53.3,30.01,North,5,5.0,14.0,76,0.00,,,0.00,LWC V1.00 B64,2013-05-14 01:02:00,
2013-05-13 18:07:00,60.9,52.9,30.01,North,9,6.0,16.0,75,0.00,,,0.00,LWC V1.00 B64,2013-05-14 01:07:00,
2013-05-13 18:12:00,60.6,53.0,30.01,NNW,341,6.0,15.0,76,0.00,,,0.00,LWC V1.00 B64,2013-05-14 01:12:00,
2013-05-13 18:17:00,60.5,52.9,30.01,North,355,10.0,12.0,76,0.00,,,0.00,LWC V1.00 B64,2013-05-14 01:17:00,
2013-05-13 18:22:00,60.4,52.8,30.01,NNW,344,10.0,16.0,76,0.00,,,0.00,LWC V1.00 B64,2013-05-14 01:22:00,
2013-05-13 18:27:00,59.9,52.7,30.00,NNE,24,15.0,20.0,77,0.00,,,0.00,LWC V1.00 B64,2013-05-14 01:27:00,
2013-05-13 18:32:00,59.4,52.9,30.00,North,349,10.0,19.0,79,0.00,,,0.00,LWC V1.00 B64,2013-05-14 01:32:00,
2013-05-13 18:37:00,58.9,52.4,30.00,NNE,27,10.0,19.0,79,0.00,,,0.00,LWC V1.00 B64,2013-05-14 01:37:00,
2013-05-13 18:42:00,58.9,52.4,30.00,NNW,340,11.0,14.0,79,0.00,,,0.00,LWC V1.00 B64,2013-05-14 01:42:00,
2013-05-13 18:47:00,58.7,52.5,30.00,NNW,342,5.0,19.0,80,0.00,,,0.00,LWC V1.00 B64,2013-05-14 01:47:00,
2013-05-13 18:52:00,58.4,51.9,30.00,North,9,5.0,18.0,79,0.00,,,0.00,LWC V1.00 B64,2013-05-14 01:52:00,
2013-05-13 18:57:00,58.3,52.2,30.00,North,10,9.0,14.0,80,0.00,,,0.00,LWC V1.00 B64,2013-05-14 01:57:00,
2013-05-13 19:02:00,57.9,51.8,29.99,NNW,327,9.0,17.0,80,0.00,,,0.00,LWC V1.00 B64,2013-05-14 02:02:00,
2013-05-13 19:07:00,57.6,51.8,29.99,North,0,11.0,14.0,81,0.00,,,0.00,LWC V1.00 B64,2013-05-14 02:07:00,
2013-05-13 19:12:00,57.6,52.1,29.99,NNW,338,4.0,6.0,82,0.00,,,0.00,LWC V1.00 B64,2013-05-14 02:12:00,
2013-05-13 19:17:00,57.6,52.1,29.99,North,5,5.0,12.0,82,0.00,,,0.00,LWC V1.00 B64,2013-05-14 02:17:00,
2013-05-13 19:22:00,57.2,51.8,29.99,NW,325,7.0,13.0,82,0.00,,,0.00,LWC V1.00 B64,2013-05-14 02:22:00,
2013-05-13 19:27:00,56.9,51.8,29.99,North,355,6.0,18.0,83,0.00,,,0.00,LWC V1.00 B64,2013-05-14 02:27:00,
2013-05-13 19:32:00,56.6,51.5,29.99,NNW,338,5.0,13.0,83,0.00,,,0.00,LWC V1.00 B64,2013-05-14 02:32:00,
2013-05-13 19:37:00,56.4,51.6,29.99,North,350,12.0,12.0,84,0.00,,,0.00,LWC V1.00 B64,2013-05-14 02:37:00,
2013-05-13 19:42:00,56.0,51.2,29.99,NNE,28,12.0,15.0,84,0.00,,,0.00,LWC V1.00 B64,2013-05-14 02:42:00,
2013-05-13 19:47:00,55.7,51.3,30.00,North,0,10.0,13.0,85,0.00,,,0.00,LWC V1.00 B64,2013-05-14 02:47:00,
2013-05-13 19:52:00,55.4,51.0,30.00,NNW,331,12.0,16.0,85,0.00,,,0.00,LWC V1.00 B64,2013-05-14 02:52:00,
2013-05-13 19:57:00,55.3,51.2,30.00,North,0,5.0,12.0,86,0.00,,,0.00,LWC V1.00 B64,2013-05-14 02:57:00,
2013-05-13 20:02:00,55.1,50.7,30.00,North,10,8.0,13.0,85,0.00,,,0.00,LWC V1.00 B64,2013-05-14 03:02:00,
2013-05-13 20:07:00,54.9,50.8,30.00,NW,323,7.0,11.0,86,0.00,,,0.00,LWC V1.00 B64,2013-05-14 03:07:00,
2013-05-13 20:12:00,54.7,50.6,30.00,North,355,6.0,14.0,86,0.00,,,0.00,LWC V1.00 B64,2013-05-14 03:12:00,
2013-05-13 20:17:00,54.6,50.5,30.00,NNE,24,9.0,15.0,86,0.00,,,0.00,LWC V1.00 B64,2013-05-14 03:17:00,
2013-05-13 20:22:00,54.4,50.6,30.00,NNW,342,6.0,17.0,87,0.00,,,0.00,LWC V1.00 B64,2013-05-14 03:22:00,
2013-05-13 20:27:00,54.3,50.5,30.00,North,355,3.0,11.0,87,0.00,,,0.00,LWC V1.00 B64,2013-05-14 03:27:00,
2013-05-13 20:32:00,54.1,50.3,30.00,NNW,333,4.0,12.0,87,0.00,,,0.00,LWC V1.00 B64,2013-05-14 03:32:00,
2013-05-13 20:37:00,53.9,50.4,30.00,NNW,341,4.0,10.0,88,0.00,,,0.00,LWC V1.00 B64,2013-05-14 03:37:00,
2013-05-13 20:42:00,53.8,50.3,30.00,North,351,4.0,8.0,88,0.00,,,0.00,LWC V1.00 B64,2013-05-14 03:42:00,
2013-05-13 20:47:00,53.6,50.1,30.00,North,0,4.0,7.0,88,0.00,,,0.00,LWC V1.00 B64,2013-05-14 03:47:00,
2013-05-13 20:52:00,53.5,50.0,30.00,NNW,344,4.0,9.0,88,0.00,,,0.00,LWC V1.00 B64,2013-05-14 03:52:00,
2013-05-13 20:57:00,53.4,49.9,30.00,North,11,3.0,7.0,88,0.00,,,0.00,LWC V1.00 B64,2013-05-14 03:57:00,
2013-05-13 21:01:00,53.3,49.8,30.00,NNW,348,3.0,10.0,88,0.00,,,0.00,LWC V1.00 B64,2013-05-14 04:01:00,
2013-05-13 21:02:00,53.3,50.1,30.00,North,9,7.0,10.0,89,0.00,,,0.00,LWC V1.00 B64,2013-05-14 04:02:00,
2013-05-13 21:03:00,53.3,50.1,30.00,NNW,344,6.0,7.0,89,0.00,,,0.00,LWC V1.00 B64,2013-05-14 04:03:00,
2013-05-13 21:07:00,53.3,50.1,30.00,North,5,6.0,10.0,89,0.00,,,0.00,LWC V1.00 B64,2013-05-14 04:07:00,
2013-05-13 21:12:00,53.2,50.0,30.00,North,0,7.0,7.0,89,0.00,,,0.00,LWC V1.00 B64,2013-05-14 04:12:00,
2013-05-13 21:13:00,53.2,50.0,30.00,NNE,12,4.0,7.0,89,0.00,,,0.00,LWC V1.00 B64,2013-05-14 04:13:00,
2013-05-13 21:18:00,53.1,49.9,30.00,NNW,341,3.0,7.0,89,0.00,,,0.00,LWC V1.00 B64,2013-05-14 04:18:00,
2013-05-13 21:23:00,53.0,49.8,30.00,NNW,346,1.0,5.0,89,0.00,,,0.00,LWC V1.00 B64,2013-05-14 04:23:00,
2013-05-13 21:28:00,53.0,49.8,30.00,NNW,346,2.0,4.0,89,0.00,,,0.00,LWC V1.00 B64,2013-05-14 04:28:00,
2013-05-13 21:33:00,52.8,49.6,30.00,NNW,346,1.0,2.0,89,0.00,,,0.00,LWC V1.00 B64,2013-05-14 04:33:00,
2013-05-13 21:38:00,52.6,49.5,30.00,NNW,345,0.0,0.0,89,0.00,,,0.00,LWC V1.00 B64,2013-05-14 04:38:00,
2013-05-13 21:43:00,52.4,49.6,30.00,NNW,346,0.0,3.0,90,0.00,,,0.00,LWC V1.00 B64,2013-05-14 04:43:00,
2013-05-13 21:48:00,52.4,49.6,30.00,NNW,346,0.0,1.0,90,0.00,,,0.00,LWC V1.00 B64,2013-05-14 04:48:00,
2013-05-13 21:53:00,52.3,49.5,30.00,NNW,345,0.0,1.0,90,0.00,,,0.00,LWC V1.00 B64,2013-05-14 04:53:00,
2013-05-13 21:58:00,52.1,49.3,30.00,NNW,345,2.0,2.0,90,0.00,,,0.00,LWC V1.00 B64,2013-05-14 04:58:00,
2013-05-13 22:03:00,52.0,49.2,30.00,NNW,346,0.0,0.0,90,0.00,,,0.00,LWC V1.00 B64,2013-05-14 05:03:00,
2013-05-13 22:08:00,51.8,49.0,30.00,NNW,346,0.0,0.0,90,0.00,,,0.00,LWC V1.00 B64,2013-05-14 05:08:00,
2013-05-13 22:13:00,51.7,48.9,30.00,NNW,346,1.0,1.0,90,0.00,,,0.00,LWC V1.00 B64,2013-05-14 05:13:00,
2013-05-13 22:18:00,51.6,48.8,30.00,NNW,346,0.0,0.0,90,0.00,,,0.00,LWC V1.00 B64,2013-05-14 05:18:00,
2013-05-13 22:23:00,51.5,49.0,30.00,NNW,346,0.0,0.0,91,0.00,,,0.00,LWC V1.00 B64,2013-05-14 05:23:00,
2013-05-13 22:28:00,51.5,49.0,30.00,NNW,346,0.0,1.0,91,0.00,,,0.00,LWC V1.00 B64,2013-05-14 05:28:00,
2013-05-13 22:33:00,51.5,49.0,29.99,NNW,346,1.0,1.0,91,0.00,,,0.00,LWC V1.00 B64,2013-05-14 05:33:00,
2013-05-13 22:38:00,51.6,49.1,29.99,NNW,346,2.0,2.0,91,0.00,,,0.00,LWC V1.00 B64,2013-05-14 05:38:00,
2013-05-13 22:43:00,51.5,49.0,29.99,NNW,346,0.0,0.0,91,0.00,,,0.00,LWC V1.00 B64,2013-05-14 05:43:00,
2013-05-13 22:48:00,51.5,49.0,29.99,NNW,346,0.0,1.0,91,0.00,,,0.00,LWC V1.00 B64,2013-05-14 05:48:00,
2013-05-13 22:53:00,51.3,48.8,29.99,NNW,346,0.0,0.0,91,0.00,,,0.00,LWC V1.00 B64,2013-05-14 05:53:00,
2013-05-13 22:58:00,51.3,48.8,29.99,NNW,346,0.0,1.0,91,0.00,,,0.00,LWC V1.00 B64,2013-05-14 05:58:00,
2013-05-13 23:03:00,51.3,48.8,29.99,NNW,346,0.0,0.0,91,0.00,,,0.00,LWC V1.00 B64,2013-05-14 06:03:00,
2013-05-13 23:08:00,51.3,48.8,29.99,NNW,346,0.0,0.0,91,0.00,,,0.00,LWC V1.00 B64,2013-05-14 06:08:00,
2013-05-13 23:13:00,51.3,48.8,29.99,NNW,346,0.0,0.0,91,0.00,,,0.00,LWC V1.00 B64,2013-05-14 06:13:00,
2013-05-13 23:18:00,51.3,48.8,29.99,NNW,346,1.0,2.0,91,0.00,,,0.00,LWC V1.00 B64,2013-05-14 06:18:00,
2013-05-13 23:23:00,51.4,49.2,29.99,NNW,346,1.0,3.0,92,0.00,,,0.00,LWC V1.00 B64,2013-05-14 06:23:00,
2013-05-13 23:28:00,51.5,49.3,29.99,NNW,346,0.0,2.0,92,0.00,,,0.00,LWC V1.00 B64,2013-05-14 06:28:00,
2013-05-13 23:33:00,51.5,49.0,29.99,NNW,346,1.0,3.0,91,0.00,,,0.00,LWC V1.00 B64,2013-05-14 06:33:00,
2013-05-13 23:38:00,51.4,48.9,29.98,NNW,347,0.0,0.0,91,0.00,,,0.00,LWC V1.00 B64,2013-05-14 06:38:00,
2013-05-13 23:43:00,51.2,48.7,29.99,NNW,346,0.0,0.0,91,0.00,,,0.00,LWC V1.00 B64,2013-05-14 06:43:00,
2013-05-13 23:48:00,51.0,48.5,29.98,NNW,346,0.0,0.0,91,0.00,,,0.00,LWC V1.00 B64,2013-05-14 06:48:00,
2013-05-13 23:53:00,50.8,48.3,29.98,NNW,347,0.0,1.0,91,0.00,,,0.00,LWC V1.00 B64,2013-05-14 06:53:00,
2013-05-13 23:58:00,50.7,48.2,29.98,NNW,347,0.0,0.0,91,0.00,,,0.00,LWC V1.00 B64,2013-05-14 06:58:00,